TimeEST,TemperatureF,Dew PointF,Humidity,Sea Level PressureIn,VisibilityMPH,Wind Direction,Wind SpeedMPH,Gust SpeedMPH,PrecipitationIn,Events,Conditions,WindDirDegrees,DateUTC
12:15 AM,42.8,32.0,66,29.80,10.0,West,6.9,18.4,N/A,,Clear,260,2012-12-27 05:15:00
12:35 AM,42.8,32.0,66,29.81,10.0,West,9.2,16.1,N/A,,Clear,260,2012-12-27 05:35:00
12:55 AM,42.8,32.0,66,29.81,10.0,West,8.1,16.1,N/A,,Clear,260,2012-12-27 05:55:00
1:15 AM,42.8,32.0,66,29.83,10.0,West,9.2,18.4,N/A,,Clear,260,2012-12-27 06:15:00
1:35 AM,42.8,32.0,66,29.82,10.0,West,9.2,19.6,N/A,,Clear,260,2012-12-27 06:35:00
1:55 AM,42.8,32.0,66,29.83,10.0,WSW,9.2,-,N/A,,Clear,250,2012-12-27 06:55:00
2:15 AM,42.8,32.0,66,29.83,10.0,West,6.9,-,N/A,,Clear,280,2012-12-27 07:15:00
2:35 AM,41.0,32.0,70,29.83,10.0,West,4.6,-,N/A,,Clear,260,2012-12-27 07:35:00
2:55 AM,41.0,32.0,70,29.84,10.0,West,4.6,-,N/A,,Clear,270,2012-12-27 07:55:00
3:15 AM,41.0,32.0,70,29.86,10.0,WNW,5.8,-,N/A,,Clear,290,2012-12-27 08:15:00
3:35 AM,41.0,32.0,70,29.86,10.0,West,4.6,-,N/A,,Clear,270,2012-12-27 08:35:00
3:55 AM,41.0,32.0,70,29.86,10.0,West,5.8,-,N/A,,Clear,270,2012-12-27 08:55:00
4:15 AM,41.0,32.0,70,29.86,10.0,West,4.6,-,N/A,,Clear,260,2012-12-27 09:15:00
4:35 AM,41.0,32.0,70,29.86,10.0,West,3.5,-,N/A,,Clear,260,2012-12-27 09:35:00
4:55 AM,39.2,32.0,75,29.87,10.0,West,3.5,-,N/A,,Clear,270,2012-12-27 09:55:00
5:35 AM,39.2,32.0,75,29.88,10.0,WSW,4.6,-,N/A,,Clear,250,2012-12-27 10:35:00
5:55 AM,39.2,28.4,65,29.89,10.0,WSW,4.6,-,N/A,,Clear,240,2012-12-27 10:55:00
6:15 AM,37.4,32.0,81,29.91,10.0,WSW,4.6,-,N/A,,Clear,240,2012-12-27 11:15:00
6:55 AM,37.4,32.0,81,29.94,10.0,SW,3.5,-,N/A,,Clear,230,2012-12-27 11:55:00
7:15 AM,37.4,32.0,81,29.94,10.0,WSW,3.5,-,N/A,,Clear,240,2012-12-27 12:15:00
7:35 AM,37.4,32.0,81,29.95,10.0,WSW,3.5,-,N/A,,Clear,240,2012-12-27 12:35:00
7:55 AM,37.4,32.0,81,29.95,10.0,WSW,3.5,-,N/A,,Clear,240,2012-12-27 12:55:00
8:15 AM,37.4,32.0,81,29.95,10.0,WSW,5.8,-,N/A,,Clear,250,2012-12-27 13:15:00
8:35 AM,39.2,32.0,75,29.96,10.0,WSW,3.5,-,N/A,,Clear,250,2012-12-27 13:35:00
8:55 AM,41.0,32.0,70,29.97,10.0,West,5.8,-,N/A,,Clear,260,2012-12-27 13:55:00
9:15 AM,42.8,32.0,66,29.98,10.0,West,8.1,-,N/A,,Clear,260,2012-12-27 14:15:00
9:55 AM,44.6,32.0,61,29.99,10.0,West,4.6,-,N/A,,Clear,280,2012-12-27 14:55:00
10:15 AM,44.6,32.0,61,30.00,10.0,West,5.8,-,N/A,,Clear,280,2012-12-27 15:15:00
10:55 AM,46.4,33.8,62,30.00,10.0,West,4.6,-,N/A,,Clear,280,2012-12-27 15:55:00
11:15 AM,48.2,33.8,58,30.00,10.0,West,6.9,-,N/A,,Clear,280,2012-12-27 16:15:00
11:35 AM,50.0,33.8,54,30.00,10.0,West,4.6,-,N/A,,Clear,270,2012-12-27 16:35:00
11:55 AM,50.0,33.8,54,30.00,10.0,WNW,8.1,-,N/A,,Clear,290,2012-12-27 16:55:00
12:15 PM,51.8,33.8,50,29.99,10.0,West,5.8,-,N/A,,Clear,270,2012-12-27 17:15:00
12:35 PM,51.8,33.8,50,29.99,10.0,WSW,5.8,-,N/A,,Clear,250,2012-12-27 17:35:00
12:55 PM,51.8,33.8,50,29.98,10.0,WSW,6.9,-,N/A,,Clear,240,2012-12-27 17:55:00
1:15 PM,53.6,33.8,47,29.98,10.0,West,6.9,-,N/A,,Clear,260,2012-12-27 18:15:00
1:35 PM,53.6,33.8,47,29.97,10.0,WNW,5.8,-,N/A,,Clear,300,2012-12-27 18:35:00
1:55 PM,53.6,33.8,47,29.98,10.0,WSW,4.6,-,N/A,,Clear,240,2012-12-27 18:55:00
2:15 PM,53.6,28.4,38,29.97,10.0,Calm,Calm,-,N/A,,Clear,0,2012-12-27 19:15:00
2:35 PM,55.4,30.2,38,29.97,10.0,WNW,4.6,-,N/A,,Clear,300,2012-12-27 19:35:00
2:55 PM,55.4,30.2,38,29.97,10.0,NW,4.6,-,N/A,,Clear,310,2012-12-27 19:55:00
3:15 PM,55.4,30.2,38,29.97,10.0,West,3.5,-,N/A,,Clear,270,2012-12-27 20:15:00
3:35 PM,55.4,32.0,41,29.97,10.0,NW,3.5,-,N/A,,Clear,320,2012-12-27 20:35:00
3:55 PM,55.4,33.8,44,29.98,10.0,West,3.5,-,N/A,,Clear,280,2012-12-27 20:55:00
4:15 PM,55.4,33.8,44,29.98,10.0,Calm,Calm,-,N/A,,Clear,0,2012-12-27 21:15:00
4:35 PM,53.6,33.8,47,29.98,10.0,Calm,Calm,-,N/A,,Clear,0,2012-12-27 21:35:00
4:55 PM,50.0,39.2,66,29.99,10.0,Calm,Calm,-,N/A,,Clear,0,2012-12-27 21:55:00
5:15 PM,46.4,39.2,76,29.99,10.0,Calm,Calm,-,N/A,,Clear,0,2012-12-27 22:15:00
5:35 PM,46.4,35.6,66,30.00,10.0,Calm,Calm,-,N/A,,Clear,0,2012-12-27 22:35:00
5:55 PM,44.6,35.6,71,30.02,10.0,Calm,Calm,-,N/A,,Clear,0,2012-12-27 22:55:00
6:15 PM,44.6,35.6,71,30.02,10.0,Calm,Calm,-,N/A,,Clear,0,2012-12-27 23:15:00
6:35 PM,42.8,35.6,76,30.03,10.0,Calm,Calm,-,N/A,,Clear,0,2012-12-27 23:35:00
6:55 PM,42.8,35.6,76,30.04,10.0,Calm,Calm,-,N/A,,Clear,0,2012-12-27 23:55:00
7:15 PM,42.8,35.6,76,30.05,10.0,Calm,Calm,-,N/A,,Clear,0,2012-12-28 00:15:00
7:35 PM,42.8,35.6,76,30.05,10.0,Calm,Calm,-,N/A,,Clear,0,2012-12-28 00:35:00
7:55 PM,41.0,35.6,81,30.05,10.0,Calm,Calm,-,N/A,,Clear,0,2012-12-28 00:55:00
8:15 PM,41.0,35.6,81,30.05,10.0,Calm,Calm,-,N/A,,Clear,0,2012-12-28 01:15:00
8:35 PM,41.0,33.8,76,30.05,10.0,Calm,Calm,-,N/A,,Clear,0,2012-12-28 01:35:00
8:55 PM,39.2,32.0,75,30.05,7.0,Calm,Calm,-,N/A,,Clear,0,2012-12-28 01:55:00
9:15 PM,39.2,32.0,75,30.05,10.0,Calm,Calm,-,N/A,,Clear,0,2012-12-28 02:15:00
9:35 PM,37.4,33.8,87,30.05,7.0,Calm,Calm,-,N/A,,Clear,0,2012-12-28 02:35:00
9:55 PM,37.4,32.0,81,30.06,10.0,Calm,Calm,-,N/A,,Clear,0,2012-12-28 02:55:00
10:15 PM,37.4,35.6,93,30.06,7.0,Calm,Calm,-,N/A,,Clear,0,2012-12-28 03:15:00
10:35 PM,35.6,35.6,100,30.07,7.0,Calm,Calm,-,N/A,,Clear,0,2012-12-28 03:35:00
10:55 PM,35.6,35.6,100,30.07,7.0,Calm,Calm,-,N/A,,Clear,0,2012-12-28 03:55:00
11:15 PM,35.6,35.6,100,30.07,7.0,Calm,Calm,-,N/A,,Clear,0,2012-12-28 04:15:00
11:35 PM,35.6,35.6,100,30.07,7.0,Calm,Calm,-,N/A,,Clear,0,2012-12-28 04:35:00
11:55 PM,35.6,35.6,100,30.07,7.0,Calm,Calm,-,N/A,,Clear,0,2012-12-28 04:55:00